Regional Weather Roundup
Issued by NWS

Home | Current Version | Previous Version | Graphics & Text | Print | Product List | Glossary On
Versions: 1 2 3 4 5 6 7 8 9 10 11 12 13 14 15 16 17 18 19 20 21 22 23 24 25 26 27 28 29 30 31 32 33 34 35 36 37 38 39 40 41 42 43 44 45 46 47 48 49 50
000
ASUS43 KOAX 311410
RWRNE

WEATHER ROUNDUP FOR NEBRASKA
NATIONAL WEATHER SERVICE OMAHA NE
900 AM CDT FRI JUL 31 2015

NOTES: SATELLITE DATA IS BEING USED TO AUGMENT CLOUD COVER ABOVE
       12000 FEET.
       "FAIR" INDICATES FEW OR NO CLOUDS BELOW 12,000 FEET WITH NO
       SIGNIFICANT WEATHER AND/OR OBSTRUCTIONS TO VISIBILITY.

  * THESE STATIONS DO NOT REPORT WEATHER SUCH AS RAIN...SNOW OR FOG.

NEZ001>004-019>022-054>056-311500-
NEBRASKA PANHANDLE

CITY           SKY/WX    TMP DP  RH WIND       PRES   REMARKS
SCOTTSBLUFF    SUNNY     66  59  78 E5        30.28R
ALLIANCE       SUNNY     64  57  78 CALM      30.27R
CHADRON        SUNNY     64  54  69 W5        30.24S
KIMBALL        SUNNY     64  58  80 CALM      30.33R
SIDNEY         SUNNY     69  60  73 CALM      30.32R
$$

NEZ057>060-069>072-079>082-311500-
SOUTHWEST NEBRASKA

CITY           SKY/WX    TMP DP  RH WIND       PRES   REMARKS
NORTH PLATTE   SUNNY     71  64  78 CALM      30.24R
IMPERIAL       SUNNY     71  59  65 SW3       30.26S
LEXINGTON      SUNNY     76  69  80 SW3       30.21S
MCCOOK         SUNNY     72  65  78 W6        30.24R
OGALLALA       SUNNY     65  62  90 CALM      30.26S
$$

NEZ005>010-023>029-035>040-094-311500-
NORTH CENTRAL NEBRASKA

CITY           SKY/WX    TMP DP  RH WIND       PRES   REMARKS
VALENTINE      SUNNY     73  59  61 SW6       30.20S
AINSWORTH      SUNNY     76  61  58 CALM      30.20S
BROKEN BOW     SUNNY     76  67  73 SW5       30.21S
O`NEILL        SUNNY     74  66  76 NE5       30.18S
ORD            SUNNY     73  66  78 CALM      30.18S
THEDFORD       SUNNY     71  63  76 CALM      30.24S
$$

NEZ041-046>049-061>064-073>077-083>087-311500-
SOUTH CENTRAL NEBRASKA

CITY           SKY/WX    TMP DP  RH WIND       PRES   REMARKS
GRAND ISLAND   SUNNY     77  68  73 W8        30.20S
AURORA         SUNNY     75  72  91 SW6       30.19S
HASTINGS       MOSUNNY   74  70  87 SW5       30.20S
HEBRON         SUNNY     76  68  77 CALM      30.20R
HOLDREGE       MOSUNNY   74  68  82 SW6       30.21S
KEARNEY *      SUNNY     75  66  73 SW7       30.20S
YORK           SUNNY     75  72  88 SW6       30.19S
$$

NEZ011>018-030>034-042>045-311500-
NORTHEAST NEBRASKA

CITY           SKY/WX    TMP DP  RH WIND       PRES   REMARKS
NORFOLK        SUNNY     75  68  78 SW6       30.16R
ALBION         SUNNY     72  65  79 S3        30.18S
BLAIR          SUNNY     75  65  69 SW9       30.15S
COLUMBUS *     SUNNY     75  66  73 SW6       30.17S
FREMONT        SUNNY     77  66  68 S8        30.16S
TEKAMAH        SUNNY     75  66  73 N5        30.14S
WAYNE          SUNNY     71  65  82 NE3       30.17S
$$

NEZ050>053-065>068-078-088>093-311500-
SOUTHEAST NEBRASKA

CITY           SKY/WX    TMP DP  RH WIND       PRES   REMARKS
LINCOLN        SUNNY     77  67  71 S6        30.18F
OMAHA EPPLEY   MOSUNNY   79  66  64 CALM      30.14S
BEATRICE       SUNNY     73  67  81 CALM      30.19S
FALLS CITY     SUNNY     74  66  76 CALM      30.17S
NEBRASKA CITY  SUNNY     74  66  75 W9        30.15F
PLATTSMOUTH    SUNNY     77  67  72 W8        30.15S
$$

NEZ044-045-051>053-067-311500-
OMAHA AREA

CITY           SKY/WX    TMP DP  RH WIND       PRES   REMARKS
OMAHA EPPLEY   MOSUNNY   79  66  64 CALM      30.14S
BLAIR          SUNNY     75  65  69 SW9       30.15S
FREMONT        SUNNY     77  66  68 S8        30.16S
MILLARD        SUNNY     79  69  72 SW6       30.15S
OFFUTT AFB     SUNNY     78  68  69 W5        30.14S
PLATTSMOUTH    SUNNY     77  67  72 W8        30.15S
WAHOO          FAIR      77  69  75 SW6       30.16S
$$


USA.gov is the U.S. government's official web portal to all federal, state and local government web resources and services.